QPF
0.13 0.18 0.18 0.15 0.12 0.08 0.05 0.03 0.03 0.04 0.03 0.02 0.01 0.01 0.00 0.01 0.00 0.01 0.01 0.00 0.00 0.00 0.00 0.00 0.00 0.01 0.01 0.02 0.04 0.04 0.06 0.07 0.08 0.11 0.13 0.16 0.19 0.23
0.07 0.13 0.18 0.20 0.20 0.15 0.10 0.06 0.05 0.04 0.05 0.03 0.02 0.01 0.01 0.00 0.00 0.01 0.01 0.00 0.00 0.00 0.00 0.00 0.00 0.01 0.01 0.02 0.04 0.05 0.06 0.06 0.08 0.09 0.11 0.13 0.14 0.16
0.04 0.07 0.11 0.17 0.23 0.23 0.20 0.15 0.10 0.08 0.07 0.06 0.06 0.05 0.02 0.01 0.01 0.01 0.01 0.01 0.00 0.00 0.00 0.00 0.00 0.00 0.01 0.01 0.02 0.04 0.06 0.08 0.08 0.10 0.12 0.13 0.12 0.12
0.02 0.04 0.06 0.11 0.17 0.22 0.27 0.25 0.20 0.17 0.12 0.13 0.15 0.12 0.07 0.05 0.04 0.02 0.01 0.00 0.00 0.00 0.00 0.00 0.00 0.00 0.00 0.01 0.01 0.02 0.03 0.04 0.06 0.06 0.08 0.09 0.09 0.10
0.01 0.02 0.05 0.08 0.12 0.18 0.23 0.26 0.28 0.26 0.20 0.18 0.18 0.20 0.15 0.08 0.04 0.01 0.01 0.00 0.00 0.00 0.00 0.00 0.00 0.00 0.00 0.00 0.01 0.01 0.02 0.03 0.04 0.04 0.05 0.07 0.08 0.08
0.02 0.01 0.02 0.06 0.10 0.15 0.22 0.27 0.30 0.31 0.29 0.26 0.23 0.23 0.22 0.15 0.07 0.01 0.01 0.00 0.00 0.00 0.01 0.01 0.01 0.01 0.01 0.01 0.01 0.01 0.01 0.01 0.02 0.03 0.03 0.03 0.04 0.05
0.03 0.02 0.02 0.03 0.05 0.10 0.17 0.24 0.30 0.33 0.33 0.31 0.30 0.30 0.25 0.17 0.09 0.03 0.01 0.00 0.00 0.01 0.01 0.01 0.01 0.01 0.01 0.01 0.01 0.01 0.01 0.01 0.01 0.01 0.01 0.02 0.02 0.02
0.06 0.05 0.03 0.02 0.02 0.05 0.10 0.17 0.24 0.31 0.36 0.35 0.32 0.33 0.33 0.25 0.18 0.09 0.02 0.00 0.00 0.01 0.01 0.01 0.01 0.01 0.01 0.00 0.01 0.01 0.01 0.01 0.01 0.00 0.00 0.01 0.01 0.01
0.08 0.08 0.04 0.01 0.02 0.03 0.05 0.08 0.15 0.22 0.29 0.34 0.35 0.32 0.35 0.35 0.25 0.14 0.05 0.01 0.00 0.00 0.00 0.01 0.01 0.01 0.01 0.01 0.01 0.01 0.01 0.01 0.00 0.00 0.00 0.00 0.00 0.00
0.08 0.09 0.08 0.06 0.06 0.06 0.05 0.05 0.07 0.11 0.17 0.22 0.26 0.31 0.35 0.41 0.34 0.23 0.12 0.04 0.01 0.00 0.00 0.01 0.01 0.01 0.01 0.01 0.01 0.00 0.00 0.00 0.00 0.00 0.00 0.00 0.00 0.00
0.07 0.08 0.09 0.07 0.07 0.05 0.06 0.06 0.06 0.08 0.10 0.14 0.20 0.29 0.35 0.39 0.41 0.29 0.14 0.05 0.01 0.01 0.00 0.00 0.01 0.01 0.01 0.01 0.01 0.00 0.00 0.00 0.00 0.00 0.00 0.00 0.00 0.00
0.11 0.11 0.09 0.09 0.09 0.03 0.04 0.05 0.05 0.07 0.10 0.10 0.13 0.18 0.24 0.30 0.33 0.28 0.15 0.06 0.02 0.00 0.00 0.00 0.00 0.01 0.01 0.01 0.01 0.00 0.00 0.00 0.00 0.00 0.00 0.00 0.00 0.00
0.14 0.12 0.10 0.06 0.04 0.02 0.02 0.04 0.04 0.05 0.09 0.12 0.12 0.14 0.18 0.21 0.25 0.25 0.16 0.08 0.03 0.01 0.00 0.00 0.00 0.00 0.00 0.00 0.00 0.00 0.00 0.00 0.00 0.00 0.00 0.00 0.00 0.00
0.17 0.15 0.14 0.08 0.03 0.01 0.01 0.01 0.01 0.02 0.06 0.10 0.13 0.15 0.16 0.16 0.17 0.19 0.17 0.10 0.05 0.02 0.01 0.00 0.00 0.00 0.00 0.00 0.00 0.00 0.00 0.00 0.00 0.00 0.00 0.00 0.00 0.00
0.15 0.16 0.13 0.06 0.03 0.02 0.01 0.00 0.01 0.01 0.04 0.08 0.10 0.12 0.15 0.15 0.16 0.18 0.16 0.11 0.07 0.04 0.02 0.01 0.00 0.00 0.00 0.00 0.00 0.00 0.00 0.00 0.00 0.00 0.00 0.00 0.00 0.00
0.07 0.08 0.07 0.04 0.02 0.02 0.01 0.00 0.00 0.01 0.03 0.06 0.09 0.12 0.17 0.17 0.16 0.14 0.12 0.09 0.07 0.06 0.04 0.02 0.01 0.01 0.00 0.00 0.00 0.01 0.00 0.00 0.00 0.00 0.00 0.00 0.00 0.00
0.06 0.10 0.08 0.06 0.03 0.02 0.03 0.03 0.02 0.02 0.03 0.07 0.11 0.13 0.17 0.16 0.13 0.10 0.08 0.06 0.06 0.05 0.04 0.03 0.01 0.01 0.01 0.00 0.00 0.00 0.00 0.00 0.00 0.00 0.00 0.00 0.00 0.00
0.04 0.11 0.13 0.12 0.09 0.07 0.07 0.06 0.04 0.03 0.04 0.08 0.11 0.12 0.14 0.15 0.12 0.09 0.07 0.06 0.05 0.04 0.03 0.02 0.02 0.01 0.01 0.01 0.01 0.00 0.00 0.00 0.00 0.00 0.00 0.00 0.00 0.00
0.02 0.08 0.11 0.12 0.12 0.11 0.10 0.09 0.06 0.06 0.08 0.10 0.11 0.11 0.14 0.14 0.10 0.08 0.08 0.06 0.04 0.03 0.03 0.02 0.02 0.01 0.01 0.01 0.01 0.00 0.00 0.00 0.00 0.00 0.00 0.00 0.00 0.00
0.02 0.05 0.09 0.11 0.11 0.10 0.10 0.09 0.08 0.09 0.11 0.12 0.12 0.12 0.14 0.13 0.10 0.07 0.06 0.06 0.04 0.03 0.03 0.02 0.01 0.01 0.01 0.01 0.01 0.01 0.00 0.00 0.00 0.00 0.00 0.00 0.00 0.00
0.03 0.04 0.06 0.08 0.08 0.08 0.09 0.09 0.08 0.10 0.12 0.14 0.14 0.13 0.14 0.15 0.11 0.08 0.06 0.06 0.05 0.03 0.02 0.02 0.02 0.01 0.01 0.01 0.00 0.00 0.00 0.00 0.00 0.00 0.00 0.00 0.00 0.00
0.08 0.06 0.06 0.06 0.07 0.09 0.11 0.10 0.08 0.09 0.13 0.15 0.16 0.15 0.15 0.16 0.14 0.10 0.08 0.06 0.05 0.04 0.03 0.02 0.02 0.01 0.01 0.00 0.00 0.00 0.00 0.00 0.00 0.00 0.00 0.00 0.00 0.00
0.11 0.08 0.07 0.06 0.07 0.08 0.08 0.08 0.07 0.07 0.11 0.15 0.16 0.18 0.18 0.18 0.17 0.14 0.10 0.07 0.05 0.04 0.04 0.03 0.02 0.01 0.01 0.00 0.00 0.00 0.00 0.00 0.00 0.00 0.00 0.00 0.00 0.00
MSLP
1008.28 1008.27 1008.26 1008.23 1008.18 1008.09 1007.96 1007.80 1007.63 1007.46 1007.34 1007.28 1007.30 1007.41 1007.61 1007.88 1008.22 1008.61 1009.02 1009.43 1009.84 1010.23 1010.60 1010.94 1011.27 1011.59 1011.91 1012.26 1012.64 1013.05 1013.50 1013.99 1014.50 1015.00 1015.49 1015.94 1016.33 1016.67
1008.03 1008.05 1008.06 1008.06 1008.02 1007.94 1007.82 1007.68 1007.53 1007.39 1007.30 1007.27 1007.32 1007.45 1007.66 1007.94 1008.28 1008.64 1009.02 1009.39 1009.74 1010.07 1010.37 1010.65 1010.91 1011.18 1011.46 1011.78 1012.13 1012.54 1012.99 1013.48 1014.00 1014.53 1015.04 1015.51 1015.93 1016.28
1007.71 1007.73 1007.76 1007.76 1007.73 1007.67 1007.58 1007.48 1007.37 1007.29 1007.25 1007.28 1007.38 1007.55 1007.80 1008.10 1008.44 1008.80 1009.16 1009.50 1009.82 1010.10 1010.35 1010.58 1010.80 1011.02 1011.27 1011.54 1011.87 1012.26 1012.70 1013.18 1013.71 1014.24 1014.77 1015.27 1015.71 1016.09
1007.30 1007.32 1007.34 1007.34 1007.33 1007.30 1007.25 1007.20 1007.17 1007.16 1007.20 1007.30 1007.46 1007.70 1007.99 1008.32 1008.68 1009.05 1009.42 1009.76 1010.06 1010.33 1010.56 1010.77 1010.97 1011.16 1011.38 1011.62 1011.92 1012.27 1012.69 1013.15 1013.66 1014.19 1014.72 1015.23 1015.70 1016.11
1006.80 1006.81 1006.82 1006.83 1006.84 1006.85 1006.86 1006.88 1006.93 1007.01 1007.13 1007.31 1007.55 1007.84 1008.19 1008.56 1008.95 1009.35 1009.73 1010.09 1010.42 1010.71 1010.96 1011.18 1011.39 1011.58 1011.79 1012.02 1012.29 1012.61 1012.99 1013.42 1013.89 1014.39 1014.91 1015.41 1015.89 1016.32
1006.21 1006.20 1006.20 1006.23 1006.28 1006.34 1006.43 1006.54 1006.67 1006.84 1007.05 1007.31 1007.61 1007.96 1008.34 1008.75 1009.17 1009.60 1010.02 1010.42 1010.80 1011.14 1011.45 1011.72 1011.98 1012.21 1012.44 1012.68 1012.94 1013.23 1013.57 1013.95 1014.37 1014.83 1015.31 1015.79 1016.25 1016.69
1005.51 1005.48 1005.50 1005.56 1005.66 1005.79 1005.96 1006.16 1006.39 1006.64 1006.93 1007.25 1007.60 1007.98 1008.39 1008.82 1009.27 1009.72 1010.19 1010.64 1011.09 1011.51 1011.91 1012.27 1012.61 1012.92 1013.20 1013.47 1013.74 1014.03 1014.33 1014.67 1015.04 1015.45 1015.87 1016.32 1016.75 1017.18
1004.68 1004.67 1004.71 1004.82 1004.98 1005.20 1005.46 1005.74 1006.06 1006.39 1006.73 1007.09 1007.47 1007.86 1008.28 1008.71 1009.17 1009.65 1010.16 1010.68 1011.20 1011.72 1012.22 1012.70 1013.15 1013.56 1013.93 1014.27 1014.58 1014.88 1015.18 1015.48 1015.81 1016.16 1016.54 1016.93 1017.33 1017.73
1003.76 1003.77 1003.86 1004.03 1004.26 1004.56 1004.91 1005.28 1005.66 1006.05 1006.43 1006.81 1007.19 1007.58 1007.98 1008.41 1008.87 1009.36 1009.90 1010.47 1011.08 1011.69 1012.32 1012.92 1013.50 1014.03 1014.51 1014.94 1015.32 1015.66 1015.97 1016.27 1016.58 1016.89 1017.21 1017.56 1017.92 1018.28
1002.79 1002.84 1002.98 1003.22 1003.53 1003.90 1004.32 1004.75 1005.18 1005.61 1006.01 1006.39 1006.76 1007.13 1007.51 1007.91 1008.36 1008.87 1009.43 1010.05 1010.72 1011.43 1012.16 1012.88 1013.59 1014.25 1014.85 1015.39 1015.86 1016.26 1016.62 1016.95 1017.25 1017.54 1017.84 1018.14 1018.46 1018.78
1001.86 1001.96 1002.16 1002.45 1002.82 1003.25 1003.71 1004.18 1004.64 1005.08 1005.48 1005.85 1006.20 1006.54 1006.90 1007.29 1007.73 1008.23 1008.81 1009.47 1010.19 1010.97 1011.79 1012.62 1013.43 1014.21 1014.93 1015.57 1016.14 1016.64 1017.06 1017.43 1017.75 1018.05 1018.33 1018.61 1018.89 1019.18
1001.09 1001.23 1001.47 1001.80 1002.20 1002.66 1003.13 1003.61 1004.07 1004.49 1004.88 1005.24 1005.57 1005.89 1006.24 1006.62 1007.05 1007.56 1008.16 1008.84 1009.60 1010.43 1011.31 1012.21 1013.10 1013.97 1014.78 1015.53 1016.19 1016.77 1017.27 1017.70 1018.06 1018.38 1018.66 1018.93 1019.18 1019.43
1000.57 1000.74 1000.99 1001.33 1001.73 1002.17 1002.62 1003.08 1003.50 1003.90 1004.27 1004.60 1004.92 1005.24 1005.58 1005.97 1006.42 1006.95 1007.56 1008.27 1009.05 1009.91 1010.81 1011.75 1012.69 1013.61 1014.49 1015.30 1016.04 1016.69 1017.26 1017.74 1018.15 1018.50 1018.80 1019.06 1019.29 1019.51
1000.34 1000.51 1000.76 1001.07 1001.42 1001.81 1002.21 1002.61 1002.99 1003.34 1003.67 1003.99 1004.31 1004.64 1005.01 1005.42 1005.90 1006.46 1007.10 1007.82 1008.62 1009.48 1010.39 1011.33 1012.27 1013.21 1014.11 1014.95 1015.73 1016.44 1017.05 1017.59 1018.04 1018.42 1018.73 1018.99 1019.21 1019.41
1000.39 1000.54 1000.74 1001.00 1001.28 1001.59 1001.91 1002.23 1002.54 1002.84 1003.14 1003.44 1003.76 1004.12 1004.53 1004.99 1005.52 1006.12 1006.79 1007.53 1008.33 1009.18 1010.07 1010.98 1011.90 1012.81 1013.70 1014.54 1015.33 1016.05 1016.70 1017.26 1017.74 1018.14 1018.47 1018.73 1018.95 1019.14
1000.61 1000.72 1000.87 1001.05 1001.25 1001.46 1001.68 1001.91 1002.14 1002.39 1002.65 1002.95 1003.29 1003.68 1004.13 1004.65 1005.24 1005.89 1006.60 1007.36 1008.16 1009.00 1009.85 1010.72 1011.59 1012.45 1013.29 1014.10 1014.86 1015.57 1016.22 1016.79 1017.28 1017.69 1018.03 1018.30 1018.52 1018.71
1000.87 1000.94 1001.02 1001.11 1001.22 1001.34 1001.47 1001.61 1001.77 1001.97 1002.20 1002.49 1002.85 1003.28 1003.79 1004.37 1005.01 1005.72 1006.47 1007.25 1008.06 1008.87 1009.69 1010.51 1011.31 1012.11 1012.88 1013.63 1014.35 1015.02 1015.64 1016.20 1016.70 1017.11 1017.46 1017.75 1017.98 1018.18
1001.01 1001.03 1001.05 1001.07 1001.11 1001.15 1001.20 1001.27 1001.38 1001.54 1001.76 1002.05 1002.43 1002.89 1003.45 1004.08 1004.78 1005.53 1006.32 1007.12 1007.93 1008.73 1009.51 1010.28 1011.02 1011.74 1012.45 1013.13 1013.79 1014.41 1015.00 1015.54 1016.02 1016.45 1016.81 1017.11 1017.37 1017.60
1000.90 1000.88 1000.86 1000.84 1000.83 1000.82 1000.83 1000.86 1000.94 1001.08 1001.29 1001.59 1001.98 1002.48 1003.06 1003.73 1004.47 1005.26 1006.08 1006.90 1007.71 1008.50 1009.26 1009.98 1010.67 1011.34 1011.97 1012.59 1013.19 1013.77 1014.32 1014.84 1015.31 1015.74 1016.13 1016.46 1016.76 1017.03
1000.50 1000.46 1000.43 1000.39 1000.36 1000.34 1000.34 1000.37 1000.44 1000.58 1000.80 1001.10 1001.51 1002.02 1002.63 1003.32 1004.08 1004.89 1005.73 1006.56 1007.38 1008.16 1008.90 1009.60 1010.25 1010.86 1011.45 1012.01 1012.56 1013.09 1013.62 1014.12 1014.60 1015.04 1015.45 1015.83 1016.18 1016.51
999.86 999.82 999.78 999.75 999.73 999.73 999.75 999.81 999.91 1000.06 1000.29 1000.61 1001.02 1001.54 1002.15 1002.85 1003.62 1004.43 1005.28 1006.12 1006.94 1007.72 1008.44 1009.12 1009.75 1010.33 1010.88 1011.40 1011.91 1012.42 1012.92 1013.41 1013.90 1014.37 1014.82 1015.25 1015.65 1016.05
999.08 999.04 999.02 999.02 999.04 999.08 999.14 999.24 999.37 999.56 999.81 1000.14 1000.56 1001.07 1001.67 1002.36 1003.12 1003.93 1004.76 1005.60 1006.42 1007.19 1007.92 1008.58 1009.19 1009.76 1010.28 1010.78 1011.27 1011.76 1012.24 1012.74 1013.24 1013.74 1014.23 1014.71 1015.17 1015.62
998.33 998.29 998.29 998.32 998.38 998.47 998.59 998.73 998.91 999.13 999.40 999.74 1000.15 1000.66 1001.24 1001.91 1002.65 1003.43 1004.25 1005.08 1005.88 1006.65 1007.37 1008.03 1008.63 1009.18 1009.69 1010.17 1010.64 1011.12 1011.60 1012.10 1012.62 1013.15 1013.68 1014.20 1014.71 1015.21
Thickness
5653 5657 5661 5668 5674 5681 5688 5693 5692 5690 5696 5709 5716 5723 5727 5727 5728 5729 5730 5730 5732 5733 5734 5734 5734 5733 5731 5729 5728 5726 5723 5721 5719 5717 5716 5715 5714 5713
5641 5645 5650 5655 5662 5668 5676 5684 5690 5690 5691 5704 5711 5717 5721 5722 5722 5723 5723 5724 5727 5730 5731 5732 5732 5731 5729 5727 5726 5724 5722 5719 5717 5715 5714 5713 5712 5711
5629 5633 5638 5643 5648 5656 5663 5671 5679 5685 5686 5695 5706 5710 5711 5713 5712 5715 5716 5718 5720 5723 5726 5727 5728 5728 5726 5724 5723 5721 5719 5716 5714 5712 5710 5708 5707 5707
5616 5620 5626 5631 5637 5644 5650 5658 5666 5674 5679 5683 5691 5697 5700 5703 5705 5707 5709 5710 5712 5715 5718 5720 5722 5722 5721 5720 5718 5716 5714 5711 5709 5707 5705 5703 5702 5700
5602 5607 5613 5618 5625 5632 5639 5646 5654 5664 5671 5675 5681 5687 5690 5694 5695 5696 5698 5700 5702 5705 5708 5711 5713 5714 5713 5712 5711 5709 5707 5705 5703 5701 5698 5696 5694 5693
5586 5593 5600 5606 5613 5619 5627 5634 5642 5650 5658 5664 5671 5676 5680 5684 5685 5685 5686 5690 5692 5695 5697 5700 5702 5703 5702 5702 5702 5700 5698 5696 5694 5692 5690 5687 5685 5684
5569 5577 5585 5593 5601 5607 5615 5623 5630 5638 5646 5652 5659 5665 5670 5673 5676 5679 5679 5680 5681 5685 5688 5690 5691 5691 5690 5690 5690 5689 5688 5686 5685 5683 5681 5678 5676 5674
5553 5561 5569 5578 5587 5595 5603 5611 5619 5627 5635 5642 5649 5655 5662 5668 5671 5673 5672 5673 5672 5676 5680 5679 5681 5680 5679 5679 5678 5679 5678 5676 5674 5673 5671 5668 5666 5664
5538 5546 5555 5567 5575 5583 5590 5598 5607 5616 5625 5633 5639 5647 5654 5661 5664 5665 5667 5669 5670 5670 5672 5669 5669 5668 5667 5667 5667 5668 5667 5666 5664 5663 5661 5659 5657 5655
5528 5535 5543 5552 5563 5571 5578 5586 5595 5605 5615 5624 5633 5640 5646 5651 5656 5660 5661 5661 5661 5662 5665 5660 5658 5657 5656 5656 5656 5656 5656 5656 5655 5653 5651 5649 5648 5647
5520 5527 5534 5543 5553 5560 5568 5577 5586 5595 5603 5613 5623 5631 5637 5642 5647 5650 5652 5653 5651 5651 5656 5655 5650 5647 5646 5645 5644 5645 5646 5646 5645 5644 5642 5641 5640 5639
5513 5520 5528 5535 5543 5550 5559 5567 5576 5586 5596 5604 5612 5620 5627 5634 5640 5645 5649 5650 5649 5645 5648 5650 5645 5645 5639 5635 5635 5635 5636 5635 5635 5635 5635 5634 5634 5633
5508 5515 5523 5529 5536 5543 5551 5560 5568 5578 5587 5596 5604 5612 5619 5627 5633 5639 5645 5650 5651 5649 5648 5648 5644 5644 5642 5633 5629 5629 5629 5628 5627 5626 5627 5628 5629 5629
5504 5511 5518 5523 5529 5535 5543 5552 5559 5568 5579 5588 5596 5605 5614 5622 5628 5633 5639 5645 5649 5650 5648 5649 5647 5646 5641 5634 5629 5625 5624 5623 5623 5622 5623 5624 5625 5625
5500 5506 5513 5519 5523 5529 5536 5544 5551 5561 5571 5580 5590 5599 5609 5617 5623 5626 5630 5635 5639 5641 5641 5645 5647 5644 5643 5640 5633 5627 5623 5621 5621 5621 5620 5620 5621 5621
5499 5504 5509 5514 5520 5527 5533 5539 5547 5557 5566 5575 5584 5594 5602 5608 5615 5619 5622 5625 5626 5627 5631 5635 5639 5640 5638 5637 5633 5627 5624 5622 5621 5620 5619 5618 5617 5617
5502 5506 5510 5515 5520 5527 5534 5540 5546 5553 5561 5570 5579 5588 5595 5602 5608 5612 5615 5618 5620 5621 5621 5624 5628 5630 5632 5633 5628 5625 5622 5621 5620 5618 5616 5615 5614 5614
5505 5510 5514 5519 5524 5529 5535 5540 5546 5552 5559 5567 5575 5583 5590 5597 5602 5605 5609 5613 5616 5616 5618 5618 5620 5620 5620 5622 5626 5623 5621 5620 5619 5616 5615 5613 5611 5611
5508 5514 5518 5521 5526 5531 5536 5541 5547 5553 5560 5566 5572 5580 5586 5592 5597 5600 5603 5607 5610 5611 5613 5615 5618 5620 5621 5621 5619 5622 5621 5620 5617 5614 5613 5612 5610 5610
5514 5519 5522 5526 5529 5534 5538 5544 5549 5554 5559 5565 5571 5577 5583 5588 5593 5596 5600 5604 5606 5606 5607 5610 5616 5622 5625 5625 5622 5619 5621 5619 5616 5611 5610 5610 5610 5609
5522 5525 5528 5530 5534 5538 5542 5547 5551 5555 5560 5564 5570 5575 5580 5584 5588 5593 5597 5597 5601 5603 5606 5610 5615 5619 5622 5622 5618 5616 5617 5617 5615 5611 5608 5607 5606 5605
5527 5530 5533 5536 5538 5541 5544 5548 5552 5556 5560 5564 5568 5573 5578 5582 5586 5589 5593 5595 5599 5602 5605 5607 5609 5612 5616 5617 5616 5614 5611 5610 5610 5609 5607 5608 5608 5605
5531 5534 5537 5539 5542 5543 5546 5549 5553 5557 5560 5563 5566 5570 5575 5579 5583 5586 5590 5594 5596 5599 5601 5603 5605 5609 5612 5614 5614 5611 5609 5606 5606 5604 5603 5604 5605 5607